Theta_e
289 284 279 282 284 283 282 280 279 283 287 285 283 284 287 289 289 288 289 290 290 291 294 296 297 298 300 306 310 319 322 326 330 329 327 327 327 329 330 331 331 329 330 328
283 280 285 287 287 285 283 280 280 284 287 285 283 282 286 289 289 289 289 289 291 291 293 295 296 296 296 303 305 317 321 325 327 329 329 328 328 328 329 330 328 328 327 325
280 283 288 286 284 282 282 281 280 280 284 285 283 280 283 288 290 290 291 291 291 291 291 293 295 295 296 301 310 317 317 326 329 329 329 327 327 326 326 325 325 326 326 324
282 287 286 285 282 284 279 286 285 283 281 275 284 273 281 284 285 288 289 289 290 291 292 293 294 294 296 308 308 312 313 319 327 329 327 325 324 322 324 324 325 325 325 324
280 283 283 281 283 286 282 287 285 284 281 280 280 275 278 284 282 284 286 288 289 291 290 291 292 294 303 303 307 309 311 315 317 327 327 326 324 325 324 324 324 324 324 324
284 289 287 286 288 287 288 285 284 283 278 271 275 276 272 279 282 284 286 287 288 290 290 290 292 300 300 300 302 307 309 309 312 316 325 325 324 324 323 323 323 323 324 323
280 282 288 289 283 287 284 279 273 271 270 265 272 274 274 281 283 284 285 287 289 289 289 289 295 297 299 300 302 303 306 305 306 309 312 315 321 322 321 321 322 322 322 323
271 270 279 287 284 281 280 280 274 268 269 272 276 269 273 282 284 286 286 287 289 291 290 294 295 297 296 297 299 300 300 300 303 303 302 304 307 308 308 309 313 318 321 322
273 272 285 286 288 285 278 274 282 274 276 272 271 276 283 282 282 283 286 288 288 290 290 291 293 294 294 294 296 297 297 297 298 298 298 298 298 300 301 301 302 303 304 307
278 271 279 284 288 286 282 283 273 276 265 263 270 271 271 276 277 281 285 286 287 288 289 290 291 291 292 293 294 295 296 294 295 295 295 295 295 295 296 296 295 296 297 300
283 277 276 284 280 277 278 277 279 278 277 271 270 269 277 277 278 279 281 284 285 285 287 288 289 290 291 293 292 293 294 293 294 293 293 292 292 293 293 292 293 293 294 295
283 280 275 276 284 284 281 277 279 274 271 273 275 270 279 280 280 280 280 282 283 284 284 285 287 288 288 289 290 290 290 290 290 291 291 290 291 291 290 290 291 291 291 292
281 277 273 275 279 282 277 278 279 280 278 270 269 269 279 279 279 280 279 280 281 282 283 284 284 285 285 286 287 287 288 289 289 289 289 288 288 288 288 289 289 290 290 290
285 281 277 273 276 279 275 276 278 276 271 272 270 271 274 275 277 278 279 280 280 280 281 281 282 283 284 285 285 285 286 287 288 288 287 286 287 287 287 288 288 288 288 288
279 268 276 277 280 281 278 275 276 274 275 271 273 271 274 275 276 278 280 280 279 279 280 280 281 282 283 284 284 285 285 286 287 286 285 285 286 286 286 286 286 287 287 287
279 267 273 268 280 280 277 277 276 277 276 277 276 273 278 278 278 278 278 279 279 279 280 281 281 282 282 283 284 284 284 285 285 284 284 284 284 284 284 284 285 285 285 285
274 268 267 269 278 278 270 276 275 276 278 277 274 277 279 277 277 277 278 279 279 279 280 281 281 282 282 283 284 283 284 285 284 283 283 283 283 283 283 283 283 283 283 283
269 266 268 268 271 265 277 280 278 275 278 279 280 281 282 279 279 279 280 279 279 280 280 281 282 282 283 284 284 284 283 283 282 282 282 282 282 282 282 282 282 282 282 282
277 269 266 269 267 273 275 276 274 273 276 280 279 281 282 284 284 280 281 281 280 281 281 282 282 283 283 283 283 282 282 281 281 281 281 282 282 281 281 280 280 280 280 280
276 274 268 268 264 262 273 275 277 276 273 280 280 279 279 281 276 277 280 281 280 281 282 281 281 281 282 282 282 281 280 280 279 280 280 281 281 280 280 280 280 280 280 280
262 265 264 265 265 268 274 277 277 269 274 279 280 280 279 277 278 279 280 280 280 280 281 281 280 279 279 282 281 279 279 278 280 280 280 280 280 280 280 279 279 279 279 279
266 263 264 264 262 263 276 277 275 277 279 279 278 278 278 278 278 278 278 277 278 277 278 279 278 277 278 278 280 277 276 278 279 278 278 278 278 280 280 278 278 279 278 277
268 269 268 270 271 276 275 275 277 278 279 279 278 277 278 277 276 276 275 276 276 275 276 276 275 275 274 275 275 275 274 275 276 275 275 275 276 278 279 278 278 277 277 276
271 271 269 270 272 273 276 276 277 278 278 278 278 278 277 275 274 274 274 274 272 271 271 270 271 271 271 271 271 270 271 272 271 271 272 274 275 275 275 278 277 276 275 275
271 271 269 270 271 270 272 275 277 276 276 275 274 274 275 276 275 275 273 272 271 270 269 268 269 268 267 267 266 265 267 268 271 272 273 274 274 272 273 275 274 276 275 276
271 271 271 272 277 275 276 273 273 271 271 271 272 271 272 274 274 273 270 270 269 268 268 269 267 266 266 266 265 265 266 268 268 271 272 272 273 272 273 273 274 281 281 281
Wind_Speed
3 6 10 12 14 20 20 21 23 21 18 20 20 23 21 17 16 17 13 12 11 11 7 7 7 7 7 7 6 6 5 8 7 11 10 9 8 9 8 9 7 8 10 7
5 13 18 16 16 20 18 20 24 23 18 17 17 26 22 20 18 17 14 13 14 10 9 9 8 8 8 8 8 7 6 7 8 7 9 7 9 6 7 7 6 7 7 7
11 15 21 19 16 17 17 18 22 25 22 17 20 31 23 20 19 19 20 19 16 13 9 9 8 9 9 10 7 2 5 8 9 9 7 5 5 4 6 6 6 6 7 6
11 13 11 16 18 15 18 13 18 19 13 11 8 20 9 9 9 16 20 17 16 16 11 8 9 8 8 3 6 5 5 8 9 9 9 8 6 5 6 8 7 7 10 12
10 17 17 16 14 16 13 15 12 15 13 12 5 8 7 3 11 12 12 10 16 15 13 10 10 9 5 5 5 2 5 5 4 11 13 12 10 7 5 7 9 9 10 11
21 15 14 7 15 17 20 16 16 10 2 6 12 12 4 4 6 11 18 11 9 13 10 9 8 7 6 5 2 2 5 3 2 3 11 11 10 9 6 9 8 8 8 9
15 2 4 6 11 8 8 12 4 3 4 7 3 7 11 14 19 16 17 17 16 7 11 10 9 6 6 4 1 1 2 2 3 5 3 3 7 7 7 7 8 7 7 7
7 11 4 4 7 8 13 6 5 6 4 7 5 7 1 12 17 17 18 17 14 8 5 10 9 6 6 4 4 3 4 4 3 7 7 6 7 5 4 4 3 1 5 11
6 7 10 13 7 3 8 5 12 7 10 7 5 6 2 19 18 20 18 10 4 9 9 12 9 7 7 5 6 4 6 6 6 8 7 9 9 8 6 6 5 3 4 5
4 8 6 13 2 5 10 12 4 4 4 4 4 6 11 20 20 19 14 11 11 10 12 10 9 8 8 6 6 7 8 8 6 9 10 9 8 8 7 8 8 7 6 8
6 3 12 7 7 18 11 10 4 3 4 4 5 4 14 16 13 13 14 13 11 10 11 9 9 8 10 8 8 7 8 9 9 10 10 11 10 10 10 9 9 7 9 8
3 5 6 1 10 14 16 15 9 5 6 4 5 4 17 16 12 14 15 14 13 13 11 10 8 11 9 9 9 9 10 11 10 11 12 12 11 11 12 12 11 10 10 10
7 4 6 8 5 9 12 24 22 6 1 13 6 5 13 17 14 15 16 16 14 13 12 12 10 10 10 9 10 11 10 11 9 11 12 13 13 12 11 10 11 11 11 10
3 5 3 4 6 10 17 25 20 15 5 5 9 12 19 20 17 18 18 16 15 13 12 10 12 12 11 12 10 12 12 9 10 11 12 13 12 11 11 11 12 13 12 12
3 3 5 8 4 4 15 19 20 17 14 9 10 10 16 15 14 16 13 13 14 14 14 13 14 12 12 13 11 12 12 12 10 12 13 13 12 11 12 11 13 12 12 12
6 4 3 5 4 6 10 20 18 13 15 5 10 10 10 11 13 17 16 14 16 15 14 16 13 14 14 14 13 13 13 12 11 14 13 12 12 12 12 12 12 11 12 12
4 3 5 5 3 4 6 14 12 9 15 9 9 4 9 15 16 17 15 14 15 14 14 13 14 14 14 14 12 15 13 11 13 14 11 12 11 12 12 11 11 12 12 12
4 2 1 5 5 7 4 4 5 6 15 17 13 15 5 7 10 14 14 14 14 14 14 15 12 13 13 12 13 12 11 11 12 12 13 13 12 12 10 12 11 10 9 11
6 1 4 2 2 2 3 6 5 6 8 15 13 14 12 7 4 19 18 15 14 14 13 12 11 12 12 14 12 12 12 12 14 13 13 11 8 10 11 12 9 8 9 9
2 2 2 5 5 1 1 3 3 1 8 11 12 12 11 13 11 7 14 13 14 15 11 12 12 12 13 12 11 13 12 12 12 10 9 9 8 9 10 8 8 6 6 8
4 4 2 4 2 5 3 7 2 6 2 5 7 6 9 7 4 4 7 12 11 9 12 11 12 12 12 10 10 12 11 13 8 8 8 8 8 8 7 6 5 6 6 6
2 3 2 1 5 5 5 3 4 2 3 3 4 5 5 5 4 4 7 9 9 10 12 12 10 10 11 11 8 10 12 8 7 7 7 7 6 6 5 6 4 4 4 5
2 6 4 6 6 2 2 2 1 1 2 2 3 3 4 4 5 6 5 6 7 7 8 8 7 8 10 10 9 8 8 7 6 6 7 6 6 6 5 5 5 4 4 3
3 3 2 4 4 3 2 2 2 2 3 3 3 4 5 4 4 4 4 5 5 5 7 4 6 8 9 9 9 7 9 8 5 5 5 4 5 5 5 3 3 3 3 3
4 4 5 4 4 5 4 3 5 3 2 2 2 2 2 4 3 2 3 4 4 4 6 5 6 6 7 6 7 7 8 7 6 5 5 5 4 4 4 3 1 2 1 2
7 8 6 6 7 6 4 6 5 6 4 4 5 1 1 2 3 3 2 2 2 4 4 5 6 6 6 6 6 8 9 9 7 6 6 5 4 4 3 3 4 2 2 3
Wind_Direction
254 251 243 246 235 251 266 274 276 269 278 292 287 263 262 265 265 264 258 255 241 237 243 242 240 258 286 267 282 252 254 198 179 187 171 194 178 176 177 191 177 176 190 182
291 259 261 265 281 276 256 267 271 278 263 263 269 267 273 263 254 258 258 259 254 233 220 220 238 254 262 265 249 250 255 212 188 201 183 183 175 179 168 177 161 163 159 166
245 263 305 292 288 276 262 264 273 270 283 270 273 274 267 260 247 248 250 251 255 246 218 212 220 230 231 248 212 56 342 242 205 188 185 155 152 149 171 158 161 176 183 180
273 263 286 313 295 288 283 271 274 271 272 270 211 288 229 281 241 232 241 238 238 238 238 207 216 240 221 142 52 32 331 312 220 187 174 166 191 164 190 177 169 176 192 200
258 303 301 296 285 301 275 299 284 284 269 292 219 262 113 290 282 267 249 235 225 225 218 207 215 218 130 81 74 13 291 275 285 202 191 185 172 190 168 182 192 184 189 196
268 270 280 261 302 299 286 283 273 251 234 248 220 206 342 265 328 350 337 321 276 205 205 192 207 147 111 72 43 243 244 246 308 340 191 183 182 189 164 177 184 196 198 203
318 326 14 29 307 310 337 292 285 223 206 230 330 208 247 15 351 327 304 302 304 238 180 168 136 122 99 89 103 306 242 134 26 74 10 100 172 184 189 183 195 200 197 200
351 331 358 298 304 300 312 314 284 289 299 311 177 237 264 3 337 323 303 279 288 332 112 95 100 102 87 72 66 85 69 64 35 78 56 47 71 60 56 37 28 216 236 234
331 287 327 307 350 331 316 297 305 282 260 259 215 32 134 347 340 329 305 236 168 58 59 77 76 82 70 53 56 65 74 65 53 70 70 60 46 50 55 38 38 5 347 324
302 292 275 304 16 304 280 297 299 218 293 287 33 61 330 344 345 347 356 74 90 96 74 68 73 73 70 55 55 76 74 69 70 70 66 63 56 58 60 55 45 29 15 17
272 215 299 330 4 355 348 352 271 281 291 324 333 87 349 341 349 359 1 35 51 61 67 70 76 71 66 61 61 68 74 74 71 70 68 64 56 54 58 59 46 40 42 37
336 295 288 326 40 24 14 3 352 334 4 315 299 80 355 346 2 24 20 33 43 47 52 50 55 63 64 59 58 63 67 70 60 71 72 68 63 58 54 52 44 42 48 44
337 299 297 317 3 23 17 9 11 338 335 9 359 348 347 355 15 29 32 30 35 37 39 48 50 59 58 57 53 54 58 76 61 75 77 72 65 63 59 62 58 48 54 51
284 276 339 326 341 359 7 8 9 14 6 358 23 341 6 358 13 24 30 29 34 38 41 46 50 50 56 51 51 54 56 55 64 67 72 72 66 65 61 59 62 58 52 52
63 289 340 287 216 25 19 11 2 19 4 30 354 15 5 5 359 23 30 37 40 44 40 40 46 46 54 52 56 51 53 50 57 64 63 61 63 62 62 57 60 60 56 57
3 298 327 286 247 201 18 7 1 18 12 358 29 41 12 7 24 26 27 31 36 36 39 41 44 45 50 48 48 51 43 42 49 60 56 59 60 61 59 56 55 63 64 61
347 5 359 287 339 36 6 356 345 340 16 335 9 13 21 29 31 25 19 30 33 32 36 39 40 44 44 46 42 52 46 42 48 51 47 55 57 57 57 58 55 52 59 63
290 355 233 273 359 41 229 33 316 329 25 10 8 8 80 75 56 39 26 27 28 30 33 37 39 42 42 53 50 54 51 51 52 46 49 45 44 52 48 61 51 52 52 59
218 282 318 57 59 204 47 17 2 353 14 14 7 4 1 348 311 34 21 24 27 31 34 37 40 44 47 47 46 50 51 49 48 38 39 41 38 54 52 51 50 41 58 59
267 235 127 355 85 89 264 346 12 190 21 11 6 18 6 0 53 9 355 13 20 26 33 30 33 39 41 41 45 49 42 46 42 35 37 38 38 55 59 55 54 54 56 62
343 343 117 336 56 299 345 306 248 76 272 351 9 15 30 59 35 328 357 19 23 23 22 26 39 38 24 27 40 48 37 37 21 22 30 37 39 51 58 65 49 50 54 56
189 111 280 5 42 330 7 343 84 166 96 59 33 31 51 64 75 53 30 32 26 20 17 16 42 38 23 21 40 46 38 9 15 26 37 35 30 34 41 56 49 50 63 64
331 179 195 160 212 296 338 70 40 354 70 53 91 24 65 64 26 20 34 37 30 24 24 22 41 45 30 27 28 43 3 356 3 27 24 21 27 32 26 40 32 31 41 63
252 147 183 56 281 235 169 149 118 49 103 75 47 46 68 78 35 30 25 20 30 19 27 7 33 38 30 17 26 21 1 351 6 24 11 2 27 12 13 18 33 46 43 36
196 116 192 257 291 350 282 223 143 114 81 93 35 48 72 96 43 60 25 25 27 17 8 17 29 34 21 15 20 5 354 351 1 0 5 14 5 11 0 353 352 27 21 88
183 188 161 220 182 155 216 174 154 143 173 173 145 114 342 92 140 107 73 22 39 31 10 28 25 24 10 18 21 7 1 1 1 3 4 354 351 344 354 6 346 1 39 7